Starlink 30370

operational
NORAD ID: 57751 Int'l Des: 2023-131 Owner: SPXS Country: US Constellation: starlink
LEOCIRCULAR

About Starlink 30370

Description loading...

Live Position

Loading 3D Globe...

Upcoming Passes

Altitude History

Altitude vs Time

uPlot chart will show altitude changes over time

Two-Line Element Set

1 57751U 23131V 25351.73408699 -.00004670 00000-0 -33075-3 0 9997
2 57751 43.0031 244.5733 0001031 269.1878 90.8846 15.02548570127745
Epoch: Dec 17, 2025 • Age: 17 hours

Current Status

Altitude 559.7 km
Velocity 7.58 km/s
Sub-Earth Point -5.82°S, 176.39°W
Launch Date Sep 1, 2023
Age 2.2 years
Type internet

Technical Details

Classification Payload
Mass 730.00 kg
Dry Mass 700.00 kg
Total Mass 730.00 kg
Length 0.30 m
Diameter 4.10 m
Span 29.00 m
Shape Box + pan
Manufacturer SPXS
Bus Type Starlink V2M
Phase Status In Orbit
Owner/State SPXS/US

Large Constellations

Loading constellations...